COSMOS 1691 DEB, 16268

Orbit data source: Space-Track

COSMOS 1691 DEB, 16268 is space debris in LEO originally from a launch on Wed, 09 Oct 1985 UTC launched from the Plesetsk Missile And Space Complex (PKMTR). Debris objects in space refer to the collection of defunct objects orbiting the Earth. Examples of debris include non-operational satellites, rocket bodies, and fragments generated from explosions, collisions, or faulty payload assembly.

Loading next visibility...
Identifier
16268, 1985-094M
Orbit
LEO
Country
Flag of CISCIS
Related business
Manufacturer
Unknown
Mission
Spacecraft
Bus & Motor
Unknown
Mass
Unknown
Launch date (UTC)
1985-10-09 (40 years ago)
Launch vehicle
Unknown
Launch site
Plesetsk Missile And Space Complex (PKMTR)
Object type
Payload
Rocket body
Debris
Shape & HBR
Unknown shape, 0.1 m
Radar Cross Section
Small (<0.1 m²)

Expand to show TLE details & history
Last TLE update: 10 hours ago

TLE from 10 hours ago
0 COSMOS 1691 DEB
1 16268U 85094M   25295.20980030  .00000312  00000-0  18016-2 0  9998
2 16268  82.7147 347.6779 0078296 312.1043 117.4982 12.56520893826934
Epoch: 2025-10-22T05:02Z
TLE epoch observation values (Epoch: 2025-10-22T05:02:06.745Z)
Latitude
69.2064°
Longitude
-99.1637°
Altitude
1,477.925 km
Speed
7.117 km/s
True Right ascension
00h 29m 00s
True Declination
69° 06' 09"
Sunlit
Object was in daylight at epoch
Visualization orbit readout
Latitude
Unknown
Longitude
Unknown
Altitude
Unknown
Speed
Unknown
Apparent Right ascension
Unknown
Apparent Declination
Unknown
Sunlit
N/A
Visualization observer readout
Local Sidereal Time
10:00:32
Azimuth
Unknown
Elevation
Unknown
Doppler factor
Unknown
Orbital elements
Apogee altitude
1,495.832 km
Perigee altitude
1,373.49 km
Semi-major axis
7,812.798 km
Eccentricity
0.00783
Inclination
82.7147°
RAAN
347.6779°
Arg. of periapsis
312.1043°
True anomaly
118.29044°
Mean anomaly
117.4982°
Eccentric anomaly
117.89468°
Mean motion
3.14292 °/min
Orbital period
114.54 mins
BSTAR
0.0018016
Loading maneuver chart data...
Computing Atmospheric mass density...
Loading historical data...
Loading historical data...
Loading historical data...
Loading historical data...
Loading historical data...
Loading historical data...
Loading historical data...

Documentation

Showing up to 5 results
|